Regional Weather Roundup
Issued by NWS

Home | Current Version | Previous Version | Text Only | Print | Product List | Glossary Off
Versions: 1 2 3 4 5 6 7 8 9 10 11 12 13 14 15 16 17 18 19 20 21 22 23 24 25 26 27 28 29 30 31 32 33 34 35 36 37 38 39 40 41 42 43 44 45 46 47 48 49 50

807
ASUS45 KBOI 270310
RWRID

IDAHO REGIONAL WEATHER ROUNDUP
NATIONAL WEATHER SERVICE BOISE ID
900 PM MDT FRI AUG 26 2016

NOTE: "FAIR" INDICATES FEW OR NO CLOUDS BELOW 12000 FEET
WITH NO SIGNIFICANT WEATHER AND/OR OBSTRUCTIONS TO VISIBILITY

IDZ012-014-270400-
SOUTHWEST IDAHO


CITY           SKY/WX    TMP DP  RH WIND       PRES   REMARKS
BOISE          CLEAR     78  32  18 CALM      29.90S
CALDWELL       CLEAR     74  38  27 CALM      29.89R
MOUNTAIN HOME  CLEAR     76  33  20 NW8       29.91S
$$

IDZ016-017-270400-
SOUTHCENTRAL IDAHO


CITY           SKY/WX    TMP DP  RH WIND       PRES   REMARKS
BURLEY         CLEAR     60  44  55 SW6       29.97R
JEROME         CLEAR     68  37  32 SW6       29.97S
TWIN FALLS     CLEAR     57  41  55 S5        29.98S
$$

IDZ019>023-270400-
SOUTHEAST IDAHO


CITY           SKY/WX    TMP DP  RH WIND       PRES   REMARKS
IDAHO FALLS    CLOUDY    68  33  27 S12       30.00R
POCATELLO      CLEAR     61  29  29 S9        30.01R
REXBURG        CLEAR     65  35  33 S9        30.00R
$$

IDZ006-010-011-018-031-032-270400-
CENTRAL IDAHO MOUNTAINS


CITY           SKY/WX    TMP DP  RH WIND       PRES   REMARKS
MCCALL         PTCLDY    64  30  27 CALM      30.02S
HAILEY         PTCLDY    70  34  26 SW12      30.02R
STANLEY          N/A     54  28  36 S3        30.11R
SALMON         CLEAR     64  39  39 SE3       29.92R
CHALLIS        PTCLDY    64  26  23 VRB6      29.96R
$$

IDZ002-004-006-007-026-270400-
NORTHERN IDAHO


CITY           SKY/WX    TMP DP  RH WIND       PRES   REMARKS
LEWISTON       MOCLDY    81  37  20 CALM      29.82S
LOWELL           N/A     65  48  54 N3        29.87R
COEUR D`ALENE  CLOUDY    73  39  29 SE6       29.83S
MULLAN PASS    MOCLDY    58  31  35 VRB5      30.06F
$$




USA.gov is the U.S. government's official web portal to all federal, state and local government web resources and services.